User: anonymous
Location: Langangen
(59.1000°N, 9.8000°E)
Time: 04:15:02
(UTC+02:00)
Language:

Iridium 60 - Orbit

View from above orbital plane
View from above orbital plane
View from above satellite
View from above satellite

Ground track
Ground track

The orbit data is extracted from the following two-line orbital elements,

1 25276U 98019E   14106.51347135  .00000463  00000-0  15818-3 0  7739
2 25276 086.3981 050.9290 0002224 100.3138 259.8309 14.34217914840138
Epoch (UTC): 16 April 2014 12:19:23
Eccentricity: 0.0002224
inclination: 86.3981°
perigee height: 776 km
apogee height: 779 km
right ascension of ascending node: 50.9290°
argument of perigee: 100.3138°
revolutions per day: 14.34217914
mean anomaly at epoch: 259.8309°
orbit number at epoch: 84013

The dashed part of the orbit path shows where the satellite is in the earth's shadow,  

DLR